Location: Pinawa
(50.1500°N, 95.8830°W)
Time: 00:54:45
(UTC-06:00)

Amateur Radio Satellites - All Passes

Search period start: 17 January 2017 00:24
Search period end: 18 January 2017 00:24
Location: Pinawa, 50.1500°N, 95.8830°W

Satellite Date Start Highest point End Downlink Frequencies (MHz)
Time Altitude Azimuth
NANOSAT C BR1 17 Jan 00:26:21 00:30:34 89° 105° (ESE) 00:34:47 145.865
DX 1 17 Jan 00:26:43 00:31:00 52° 260° (W) 00:35:18 434.975-435.025
ITUPSAT 1 17 Jan 00:31:33 00:34:13 15° 54° (NE) 00:36:54 437.325
UKube-1 17 Jan 00:34:01 00:38:17 58° 259° (WSW) 00:42:35 .
UNISAT 6 17 Jan 00:36:17 00:38:05 12° 305° (NW) 00:39:54 437.425
BEESAT 2 17 Jan 00:37:33 00:40:30 19° 28° (NNE) 00:43:26 435.950
Cosmos 2491 17 Jan 00:38:20 00:41:47 13° 68° (ENE) 00:45:15 435.465 / 435.565
CUBEBUG 1 17 Jan 00:40:14 00:42:53 16° 271° (W) 00:45:33 437.445
SPROUT 17 Jan 00:41:14 00:44:53 27° 266° (W) 00:48:33 437.525
50 SAT 17 Jan 00:42:27 00:45:07 19° 267° (W) 00:47:48 437.505
AISAT 17 Jan 00:45:02 00:48:18 20° 269° (W) 00:51:34 437.250
TISAT 1 17 Jan 00:47:11 00:51:19 65° 73° (ENE) 00:55:29 437.305
BEESAT 17 Jan 01:07:14 01:11:16 28° 62° (ENE) 01:15:19 436.000
SWISSCUBE 17 Jan 01:08:15 01:12:25 31° 63° (ENE) 01:16:37 437.505
PCSat 17 Jan 01:11:37 01:15:54 24° 109° (ESE) 01:20:12 145.827
BUGSAT 1 17 Jan 01:14:23 01:18:26 82° 284° (WNW) 01:22:27 437.445
QB50P1 17 Jan 01:16:33 01:20:11 29° 295° (WNW) 01:23:51 145.935-145.965
POLYITAN 1 17 Jan 01:19:25 01:23:01 28° 295° (WNW) 01:26:36 437.675
QB50P2 17 Jan 01:20:35 01:24:05 26° 296° (WNW) 01:27:35 145.880/145.840
Cosmos 2504 17 Jan 01:32:09 01:39:06 36° 65° (ENE) 01:45:42 435.465 / 435.565
YUBILEINY 17 Jan 01:35:26 01:44:16 67° 75° (ENE) 01:53:01 435.215
RS-15 17 Jan 01:36:34 01:48:37 88° 310° (NW) 02:01:07 29.354- 29.394
BEESAT 3 17 Jan 01:38:57 01:42:58 76° 49° (NE) 01:46:58 437.485
Gurwin Techsat 1B 17 Jan 01:39:01 01:43:35 28° 93° (E) 01:48:08 435.225
MOZHAYETS 4 17 Jan 01:39:30 01:42:37 18° 59° (ENE) 01:45:45
POPSAT HIP 1 17 Jan 01:43:38 01:46:31 18° 300° (WNW) 01:49:23 437.405
ISS 17 Jan 01:46:31 01:49:46 83° 164° (SSE) 01:53:02 145.825
M-CUBED/EXP-1 PRIME 17 Jan 01:55:32 01:58:57 23° 57° (ENE) 02:02:12 437.505
Oscar 19 17 Jan 01:56:56 02:02:08 67° 103° (ESE) 02:07:16 437.125/150
AIST 1 17 Jan 01:57:41 02:01:56 62° 264° (W) 02:06:09
AIST 2 17 Jan 01:59:25 02:01:02 12° 9° (N) 02:02:39 435.215
DUCHIFAT 1 17 Jan 01:59:59 02:02:22 15° 302° (WNW) 02:04:44 145.980
NANOSAT C BR1 17 Jan 02:03:42 02:05:41 13° 303° (WNW) 02:07:40 145.865
JAS-2 17 Jan 02:05:29 02:09:40 18° 310° (NW) 02:14:07 435.910
ITUPSAT 1 17 Jan 02:06:35 02:11:21 86° 76° (ENE) 02:16:10 437.325
AO-7 17 Jan 02:13:20 02:17:15 14° 82° (E) 02:21:08 29.400- 29.500
BEESAT 2 17 Jan 02:14:51 02:18:55 78° 49° (NE) 02:22:58 435.950
TISAT 1 17 Jan 02:24:58 02:27:24 15° 271° (W) 02:29:50 437.305
Cosmos 2491 17 Jan 02:28:10 02:36:36 58° 91° (E) 02:45:04 435.465 / 435.565
ITAMSAT 1 17 Jan 02:31:54 02:35:29 19° 89° (E) 02:39:05 435.822/435.867
AUBIESAT-1 17 Jan 02:34:58 02:39:00 41° 63° (ENE) 02:42:47 437.475
BEESAT 17 Jan 02:44:20 02:48:53 44° 261° (W) 02:53:27 436.000
SWISSCUBE 17 Jan 02:45:41 02:50:07 39° 262° (W) 02:54:37 437.505
KKS-1 17 Jan 02:47:24 02:51:11 28° 63° (ENE) 02:54:58 437.445
BUGSAT 1 17 Jan 02:51:54 02:53:08 11° 304° (NW) 02:54:21 437.445
PCSat 17 Jan 02:53:27 02:58:51 68° 310° (NW) 03:04:18 145.827
MOZHAYETS 4 17 Jan 03:14:45 03:19:18 69° 258° (WSW) 03:23:55
BEESAT 3 17 Jan 03:17:44 03:20:05 15° 247° (WSW) 03:22:26 437.485
Gurwin Techsat 1B 17 Jan 03:18:39 03:23:48 50° 292° (WNW) 03:28:53 435.225
ISS 17 Jan 03:23:07 03:26:22 65° 2° (N) 03:29:36 145.825
Cosmos 2504 17 Jan 03:25:31 03:32:52 54° 269° (W) 03:39:49 435.465 / 435.565
CUSAT 1 17 Jan 03:27:29 03:32:08 39° 88° (E) 03:38:02 437.405
M-CUBED/EXP-1 PRIME 17 Jan 03:28:52 03:33:11 51° 254° (WSW) 03:37:15 437.505
YUBILEINY 17 Jan 03:32:55 03:40:30 34° 278° (W) 03:48:02 435.215
Oscar 19 17 Jan 03:37:02 03:41:00 23° 302° (WNW) 03:44:56 437.125/150
AIST 2 17 Jan 03:37:24 03:40:57 25° 32° (NNE) 03:44:28 435.215
DANDE 17 Jan 03:42:28 03:43:48 11° 76° (ENE) 03:45:14 436.750
ITUPSAT 1 17 Jan 03:47:24 03:49:52 14° 273° (W) 03:52:19 437.325
CUBESAT XI-V 17 Jan 03:49:48 03:54:19 49° 70° (ENE) 03:58:53 437.345
STARS 17 Jan 03:51:03 03:55:19 52° 70° (ENE) 03:59:35 437.465
RS-15 17 Jan 03:51:11 04:02:49 47° 339° (NNW) 04:14:41 29.354- 29.394
BEESAT 2 17 Jan 03:53:51 03:56:11 15° 248° (WSW) 03:58:31 435.950
AO-7 17 Jan 04:03:33 04:11:51 61° 104° (ESE) 04:20:05 29.400- 29.500
AUBIESAT-1 17 Jan 04:09:54 04:13:29 25° 259° (W) 04:16:56 437.475
ITAMSAT 1 17 Jan 04:10:19 04:15:32 74° 289° (WNW) 04:20:43 435.822/435.867
KKS-1 17 Jan 04:23:25 04:27:37 40° 262° (W) 04:31:49 437.445
Cosmos 2491 17 Jan 04:25:46 04:33:49 40° 294° (WNW) 04:41:58 435.465 / 435.565
GONETS M04 17 Jan 04:27:38 04:29:39 11° 36° (NE) 04:31:39
PCSat 17 Jan 04:39:09 04:43:15 21° 332° (NNW) 04:47:23 145.827
BRITE-PL 17 Jan 04:41:07 04:45:31 28° 91° (E) 04:49:36 437.365/2234.400
ISS 17 Jan 04:59:40 05:02:53 66° 203° (SSW) 05:06:08 145.825
Gurwin Techsat 1B 17 Jan 05:01:34 05:02:34 11° 313° (NW) 05:03:34 435.225
GOMX 1 17 Jan 05:05:39 05:08:52 18° 88° (E) 05:11:55 467.674
CUSAT 1 17 Jan 05:09:11 05:14:03 39° 296° (WNW) 05:20:15 437.405
AIST 2 17 Jan 05:15:35 05:19:50 71° 234° (SW) 05:24:03 435.215
HORYU 2 17 Jan 05:19:45 05:23:34 27° 95° (E) 05:27:22 437.375
DANDE 17 Jan 05:21:29 05:25:14 78° 282° (WNW) 05:30:21 436.750
Cosmos 2504 17 Jan 05:23:17 05:24:16 10° 293° (WNW) 05:25:15 435.465 / 435.565
CUBESAT XI-V 17 Jan 05:28:10 05:31:57 24° 268° (W) 05:35:46 437.345
STARS 17 Jan 05:28:42 05:31:57 20° 268° (W) 05:35:14 437.465
Cubesat XI-IV 17 Jan 05:35:21 05:38:49 17° 88° (E) 05:42:17 437.490
STRAND 1 17 Jan 05:39:34 05:43:51 28° 61° (ENE) 05:48:10 437.568
ITAMSAT 1 17 Jan 05:51:23 05:54:09 15° 308° (NW) 05:56:56 435.822/435.867
Cosmos 2499 17 Jan 05:56:14 06:02:25 28° 61° (ENE) 06:08:22 435.465 / 435.565
AO-7 17 Jan 05:56:42 06:04:22 42° 306° (NW) 06:12:00 29.400- 29.500
NOAA 15 17 Jan 05:57:33 06:02:04 27° 93° (E) 06:06:33 137.62
DOVE 4 17 Jan 06:03:57 06:07:33 25° 93° (E) 06:11:02 437.250
RS-15 17 Jan 06:07:14 06:18:53 43° 13° (NNE) 06:30:25 29.354- 29.394
BRITE-PL 17 Jan 06:19:17 06:24:14 45° 293° (WNW) 06:28:47 437.365/2234.400
GONETS M04 17 Jan 06:21:43 06:29:51 38° 65° (ENE) 06:37:56
CINEMA 3 17 Jan 06:25:17 06:26:04 10° 86° (E) 06:26:51 145.822/145.860
PCSat 17 Jan 06:26:15 06:28:47 13° 358° (N) 06:31:20 145.827
LilacSat-2 17 Jan 06:29:43 06:33:31 53° 101° (E) 06:37:18 437.200
Cosmos 2491 17 Jan 06:31:27 06:33:54 11° 323° (NW) 06:36:21 435.465 / 435.565
CUTE-I 17 Jan 06:32:16 06:37:27 49° 100° (E) 06:42:37 437.470
ISS 17 Jan 06:36:50 06:38:56 16° 220° (SW) 06:41:00 145.825
GOMX 1 17 Jan 06:42:51 06:47:26 58° 289° (WNW) 06:51:43 467.674
NOAA 18 17 Jan 06:47:48 06:52:52 38° 97° (E) 06:57:55 137.9125
HORYU 2 17 Jan 06:56:05 07:00:13 39° 293° (WNW) 07:04:21 437.375
AIST 2 17 Jan 06:56:59 06:57:31 10° 252° (WSW) 06:58:04 435.215
DANDE 17 Jan 07:07:41 07:09:25 12° 313° (NW) 07:11:19 436.750
CUTE 1.7 + AOD 2 17 Jan 07:12:03 07:15:12 20° 91° (E) 07:18:22 437.475
Cubesat XI-IV 17 Jan 07:14:11 07:19:33 81° 286° (WNW) 07:24:53 437.490
STRAND 1 17 Jan 07:17:52 07:22:49 50° 261° (W) 07:27:47 437.568
O/OREOS (USA 219) 17 Jan 07:31:28 07:35:53 61° 113° (ESE) 07:40:18 437.305
PRISM 17 Jan 07:34:25 07:37:28 20° 61° (ENE) 07:40:31 437.425
NOAA 15 17 Jan 07:36:57 07:42:07 52° 293° (WNW) 07:47:16 137.62
HO-68 17 Jan 07:38:44 07:45:30 41° 97° (E) 07:52:10 435.675
CANX-2 17 Jan 07:39:51 07:43:57 40° 97° (E) 07:48:00 2200.000
DOVE 4 17 Jan 07:41:26 07:45:24 36° 293° (WNW) 07:49:14 437.250
CUBEBUG 2 17 Jan 07:43:32 07:46:31 18° 91° (E) 07:49:32 437.445
Cosmos 2499 17 Jan 07:49:01 07:56:16 68° 265° (W) 08:03:13 435.465 / 435.565
AO-7 17 Jan 07:50:46 07:54:59 15° 330° (NNW) 07:59:13 29.400- 29.500
SEEDS 17 Jan 07:58:55 08:02:55 38° 97° (E) 08:06:54 437.485
CINEMA 3 17 Jan 07:59:42 08:03:52 89° 285° (WNW) 08:08:05 145.822/145.860
LilacSat-2 17 Jan 08:04:54 08:07:26 17° 298° (WNW) 08:09:59 437.200
PCSat 17 Jan 08:10:30 08:14:24 19° 25° (NNE) 08:18:18 145.827
COMPASS 1 17 Jan 08:11:37 08:15:31 35° 96° (E) 08:19:22 437.405
CUTE-I 17 Jan 08:12:44 08:17:18 30° 299° (WNW) 08:21:53 437.470
SO-50 17 Jan 08:13:35 08:16:28 16° 112° (ESE) 08:19:18 436.795
GONETS M04 17 Jan 08:18:33 08:27:10 62° 268° (W) 08:35:49
UWE-3 17 Jan 08:19:24 08:23:04 27° 94° (E) 08:26:47 435.000/436.395/437.385
RS-15 17 Jan 08:21:15 08:33:44 74° 44° (NE) 08:45:50 29.354- 29.394
UNISAT 6 17 Jan 08:25:39 08:28:49 21° 61° (ENE) 08:31:59 437.425
FUNcube-1 17 Jan 08:26:08 08:29:14 19° 91° (E) 08:32:20 145.935
AAUSAT CUBESAT 2 17 Jan 08:26:44 08:30:41 38° 97° (E) 08:34:36 437.432
NOAA 18 17 Jan 08:28:30 08:33:33 39° 297° (WNW) 08:38:35 137.9125
TIGRISAT 17 Jan 08:39:46 08:43:16 25° 64° (ENE) 08:46:46 435.000
ZACube-1 17 Jan 08:46:30 08:50:22 31° 95° (E) 08:54:17 437.345
CUTE 1.7 + AOD 2 17 Jan 08:47:09 08:51:21 51° 289° (WNW) 08:55:31 437.475
ANTELSAT 17 Jan 08:53:34 08:57:27 35° 67° (ENE) 09:01:21 437.575/2403.000
JAS-2 17 Jan 08:53:44 08:57:36 20° 52° (NE) 09:01:43 435.910
Cubesat XI-IV 17 Jan 08:55:39 08:58:50 16° 307° (NW) 09:02:03 437.490
PRISM 17 Jan 09:08:20 09:12:25 53° 259° (W) 09:16:32 437.425
O/OREOS (USA 219) 17 Jan 09:12:10 09:15:41 22° 313° (NW) 09:19:13 437.305
CANX-2 17 Jan 09:16:04 09:19:38 26° 296° (WNW) 09:23:11 2200.000
CUBEBUG 2 17 Jan 09:19:18 09:23:28 55° 288° (WNW) 09:27:43 437.445
NOAA 15 17 Jan 09:19:20 09:20:46 11° 313° (NW) 09:22:12 137.62
HO-68 17 Jan 09:26:29 09:33:22 51° 298° (WNW) 09:40:13 435.675
Oscar 11 17 Jan 09:29:37 09:34:00 69° 103° (ESE) 09:38:20 145.826/435.025
HUMSAT D 17 Jan 09:30:46 09:33:32 17° 90° (E) 09:36:17 437.325/437.525
POPSAT HIP 1 17 Jan 09:31:08 09:32:37 12° 55° (NE) 09:34:07 437.405
SEEDS 17 Jan 09:34:54 09:38:29 27° 295° (WNW) 09:42:03 437.485
CINEMA 3 17 Jan 09:38:41 09:40:24 12° 303° (WNW) 09:42:07 145.822/145.860
Cosmos 2499 17 Jan 09:44:41 09:47:50 13° 288° (WNW) 09:50:56 435.465 / 435.565
DUCHIFAT 1 17 Jan 09:45:48 09:47:59 14° 57° (ENE) 09:50:09 145.980
COMPASS 1 17 Jan 09:47:20 09:50:58 28° 295° (WNW) 09:54:34 437.405
NANOSAT C BR1 17 Jan 09:48:55 09:51:29 16° 59° (ENE) 09:54:04 145.865
SO-50 17 Jan 09:51:36 09:56:20 88° 313° (NW) 10:01:00 436.795
PCSat 17 Jan 09:53:34 09:58:58 58° 48° (NE) 10:04:19 145.827
UWE-3 17 Jan 09:55:40 09:59:38 38° 292° (WNW) 10:03:41 435.000/436.395/437.385
UNISAT 6 17 Jan 10:01:04 10:05:14 51° 260° (W) 10:09:25 437.425
FUNcube-1 17 Jan 10:01:33 10:05:47 55° 288° (WNW) 10:10:04 145.935
AAUSAT CUBESAT 2 17 Jan 10:02:31 10:06:00 26° 296° (WNW) 10:09:27 437.432
TIGRISAT 17 Jan 10:15:48 10:19:48 39° 262° (W) 10:23:50 435.000
DELFI C3 17 Jan 10:15:56 10:19:58 77° 102° (ESE) 10:23:58 145.870
GONETS M04 17 Jan 10:17:54 10:22:04 14° 291° (WNW) 10:26:15
ZACube-1 17 Jan 10:22:47 10:26:39 33° 293° (WNW) 10:30:36 437.345
ANTELSAT 17 Jan 10:30:34 10:34:14 28° 266° (W) 10:37:55 437.575/2403.000
BY70-1 17 Jan 10:31:13 10:33:22 15° 91° (E) 10:35:27 436.1900
RS-15 17 Jan 10:34:20 10:45:37 45° 250° (WSW) 10:56:33 29.354- 29.394
BUGSAT 1 17 Jan 10:34:47 10:37:19 16° 59° (ENE) 10:39:50 437.445
JAS-2 17 Jan 10:36:36 10:41:55 83° 255° (WSW) 10:47:49 435.910
QB50P1 17 Jan 10:37:10 10:41:10 45° 69° (ENE) 10:45:11 145.935-145.965
Cosmos 2491 17 Jan 10:38:38 10:40:13 10° 36° (NE) 10:41:48 435.465 / 435.565
POLYITAN 1 17 Jan 10:40:07 10:44:09 48° 70° (ENE) 10:48:12 437.675
QB50P2 17 Jan 10:41:09 10:45:15 52° 71° (ENE) 10:49:22 145.880/145.840
ESTCUBE 1 17 Jan 10:59:52 11:03:16 20° 91° (E) 11:06:39 437.505/2401.250
POPSAT HIP 1 17 Jan 11:03:30 11:07:42 80° 74° (ENE) 11:11:55 437.405
HUMSAT D 17 Jan 11:05:19 11:09:31 61° 288° (WNW) 11:13:45 437.325/437.525
Oscar 11 17 Jan 11:06:48 11:09:39 17° 301° (WNW) 11:12:29 145.826/435.025
HO-68 17 Jan 11:15:50 11:19:32 15° 320° (NW) 11:23:13 435.675
DUCHIFAT 1 17 Jan 11:18:55 11:23:06 82° 258° (WSW) 11:27:17 145.980
NANOSAT C BR1 17 Jan 11:22:34 11:26:44 69° 258° (WSW) 11:30:56 145.865
VELOX 1 17 Jan 11:27:22 11:29:50 15° 88° (E) 11:32:17 145.980
Gurwin Techsat 1B 17 Jan 11:28:05 11:30:44 14° 51° (NE) 11:33:24 435.225
AO-7 17 Jan 11:29:47 11:33:14 13° 26° (NNE) 11:36:41 29.400- 29.500
SO-50 17 Jan 11:33:37 11:37:24 24° 332° (NNW) 11:41:10 436.795
PCSat 17 Jan 11:37:25 11:42:04 29° 249° (WSW) 11:46:42 145.827
Oscar 19 17 Jan 11:40:20 11:44:37 27° 60° (ENE) 11:48:55 437.125/150
DELFI C3 17 Jan 11:52:10 11:54:14 14° 302° (WNW) 11:56:18 145.870
BY70-1 17 Jan 12:00:41 12:04:00 43° 289° (WNW) 12:07:13 436.1900
50 SAT 17 Jan 12:02:48 12:05:37 21° 94° (E) 12:08:25 437.505
BUGSAT 1 17 Jan 12:08:12 12:12:15 64° 258° (WSW) 12:16:17 437.445
DX 1 17 Jan 12:10:48 12:13:57 19° 92° (E) 12:17:05 434.975-435.025
CUSAT 1 17 Jan 12:13:11 12:17:26 15° 47° (NE) 12:21:48 437.405
QB50P1 17 Jan 12:13:56 12:17:10 21° 268° (W) 12:20:25 145.935-145.965
POLYITAN 1 17 Jan 12:17:07 12:20:12 20° 268° (W) 12:23:19 437.675
UKube-1 17 Jan 12:17:15 12:20:04 17° 90° (E) 12:22:52 .
QB50P2 17 Jan 12:18:25 12:21:22 18° 269° (W) 12:24:20 145.880/145.840
SPROUT 17 Jan 12:21:34 12:25:31 35° 97° (E) 12:29:26 437.525
CUBEBUG 1 17 Jan 12:21:46 12:26:08 73° 103° (ESE) 12:30:26 437.445
JAS-2 17 Jan 12:25:40 12:28:13 13° 278° (W) 12:30:52 435.910
AISAT 17 Jan 12:28:47 12:33:08 57° 101° (E) 12:37:27 437.250
Cosmos 2491 17 Jan 12:32:25 12:40:28 38° 65° (ENE) 12:48:29 435.465 / 435.565
ESTCUBE 1 17 Jan 12:35:57 12:40:24 54° 290° (WNW) 12:44:49 437.505/2401.250
POPSAT HIP 1 17 Jan 12:42:20 12:44:04 12° 273° (W) 12:45:47 437.405
YUBILEINY 17 Jan 12:50:47 12:55:21 15° 70° (ENE) 12:59:54 435.215
VELOX 1 17 Jan 13:02:24 13:06:49 73° 288° (WNW) 13:11:12 145.980
Gurwin Techsat 1B 17 Jan 13:04:30 13:09:46 69° 71° (ENE) 13:15:04 435.225
AO-7 17 Jan 13:16:17 13:23:36 36° 51° (NE) 13:30:56 29.400- 29.500
SO-50 17 Jan 13:17:07 13:19:28 14° 356° (N) 13:21:48 436.795
Oscar 19 17 Jan 13:18:32 13:23:38 55° 259° (W) 13:28:47 437.125/150
50 SAT 17 Jan 13:35:41 13:38:55 32° 292° (WNW) 13:42:08 437.505
DX 1 17 Jan 13:46:13 13:50:28 53° 290° (WNW) 13:54:41 434.975-435.025
UKube-1 17 Jan 13:52:14 13:56:31 61° 289° (WNW) 14:00:45 .
CUSAT 1 17 Jan 13:53:42 14:01:18 50° 69° (ENE) 14:08:54 437.405
ITAMSAT 1 17 Jan 13:53:57 13:58:51 45° 66° (ENE) 14:03:45 435.822/435.867
SPROUT 17 Jan 13:57:42 14:01:21 28° 295° (WNW) 14:04:58 437.525
AO-85 17 Jan 13:57:51 13:59:42 12° 111° (ESE) 14:01:30 145.980
CUBEBUG 1 17 Jan 13:59:12 14:01:53 16° 302° (WNW) 14:04:34 437.445
TISAT 1 17 Jan 14:01:45 14:05:53 60° 102° (ESE) 14:10:00 437.305
ITUPSAT 1 17 Jan 14:03:29 14:06:26 16° 89° (E) 14:09:21 437.325
AISAT 17 Jan 14:06:01 14:09:14 20° 300° (WNW) 14:12:27 437.250
DANDE 17 Jan 14:09:12 14:15:18 29° 63° (ENE) 14:22:10 436.750
Cosmos 2504 17 Jan 14:16:25 14:23:20 28° 81° (E) 14:29:57 435.465 / 435.565
BRITE-PL 17 Jan 14:21:05 14:23:09 12° 50° (NE) 14:25:12 437.365/2234.400
Cosmos 2491 17 Jan 14:29:14 14:37:50 62° 268° (W) 14:46:27 435.465 / 435.565
AIST 1 17 Jan 14:31:12 14:35:30 59° 96° (E) 14:39:48
BEESAT 17 Jan 14:39:31 14:43:51 33° 96° (E) 14:48:09 436.000
SWISSCUBE 17 Jan 14:40:42 14:45:10 37° 97° (E) 14:49:37 437.505
VELOX 1 17 Jan 14:40:58 14:42:30 12° 307° (NW) 14:44:02 145.980
YUBILEINY 17 Jan 14:41:38 14:50:17 65° 93° (E) 14:59:01 435.215
Gurwin Techsat 1B 17 Jan 14:46:19 14:50:14 21° 270° (W) 14:54:10 435.225
SO-50 17 Jan 14:58:28 15:01:41 18° 21° (NNE) 15:04:52 436.795
MOZHAYETS 4 17 Jan 15:05:35 15:09:05 21° 91° (E) 15:12:34
AO-7 17 Jan 15:07:27 15:15:49 74° 253° (WSW) 15:24:15 29.400- 29.500
ITAMSAT 1 17 Jan 15:33:56 15:38:28 30° 265° (W) 15:43:02 435.822/435.867
AO-85 17 Jan 15:34:52 15:39:30 77° 127° (SE) 15:43:48 145.980
CUSAT 1 17 Jan 15:35:50 15:43:15 47° 269° (W) 15:50:37 437.405
TISAT 1 17 Jan 15:38:19 15:41:08 18° 300° (WNW) 15:43:56 437.305
ITUPSAT 1 17 Jan 15:40:00 15:44:49 77° 288° (WNW) 15:49:38 437.325
NOAA 15 17 Jan 15:45:45 15:48:20 14° 50° (NE) 15:50:56 137.62
DANDE 17 Jan 15:51:24 15:58:37 80° 260° (W) 16:06:56 436.750
BRITE-PL 17 Jan 15:54:57 16:00:28 53° 70° (ENE) 16:05:57 437.365/2234.400
O/OREOS (USA 219) 17 Jan 15:57:40 16:01:54 38° 54° (NE) 16:06:07 437.305
Cosmos 2504 17 Jan 16:07:18 16:16:01 78° 281° (WNW) 16:24:13 435.465 / 435.565
KKS-1 17 Jan 16:09:34 16:13:22 27° 95° (E) 16:17:08 437.445
AIST 1 17 Jan 16:10:30 16:13:31 18° 295° (WNW) 16:16:30
GOMX 1 17 Jan 16:16:48 16:21:45 38° 66° (ENE) 16:26:30 467.674
BEESAT 17 Jan 16:17:16 16:21:40 37° 295° (WNW) 16:26:03 436.000
SWISSCUBE 17 Jan 16:18:38 16:22:55 33° 296° (WNW) 16:27:12 437.505
CUTE-I 17 Jan 16:20:31 16:24:35 23° 57° (ENE) 16:28:40 437.470
HORYU 2 17 Jan 16:21:51 16:26:03 44° 68° (ENE) 16:30:16 437.375
Cosmos 2491 17 Jan 16:28:35 16:32:48 15° 291° (WNW) 16:37:00 435.465 / 435.565
HO-68 17 Jan 16:29:02 16:32:41 15° 39° (NE) 16:36:19 435.675
M-CUBED/EXP-1 PRIME 17 Jan 16:37:55 16:41:20 49° 106° (ESE) 16:44:34 437.505
SO-50 17 Jan 16:38:37 16:43:06 55° 44° (NE) 16:47:31 436.795
YUBILEINY 17 Jan 16:39:44 16:47:43 37° 296° (WNW) 16:55:47 435.215
NOAA 18 17 Jan 16:40:05 16:44:11 22° 55° (NE) 16:48:15 137.9125
MOZHAYETS 4 17 Jan 16:42:02 16:46:35 56° 289° (WNW) 16:51:07
Cubesat XI-IV 17 Jan 17:01:23 17:06:23 44° 66° (ENE) 17:11:25 437.490
AO-7 17 Jan 17:04:47 17:10:05 18° 275° (W) 17:15:26 29.400- 29.500
BEESAT 3 17 Jan 17:10:45 17:14:02 26° 118° (ESE) 17:17:23 437.485
STARS 17 Jan 17:11:46 17:16:04 52° 100° (E) 17:20:19 437.465
DOVE 4 17 Jan 17:12:52 17:17:40 48° 70° (ENE) 17:22:15 437.250
LilacSat-2 17 Jan 17:15:49 17:19:28 50° 72° (ENE) 17:23:10 437.200
AO-85 17 Jan 17:16:41 17:20:20 24° 328° (NNW) 17:23:48 145.980
AUBIESAT-1 17 Jan 17:17:29 17:20:58 69° 292° (WNW) 17:24:16 437.475
CUBESAT XI-V 17 Jan 17:18:39 17:23:22 64° 101° (ESE) 17:28:01 437.345
ITUPSAT 1 17 Jan 17:19:30 17:21:53 14° 307° (NW) 17:24:16 437.325
CUSAT 1 17 Jan 17:21:36 17:23:24 11° 289° (WNW) 17:25:14 437.405
NOAA 15 17 Jan 17:21:56 17:27:11 67° 70° (ENE) 17:32:28 137.62
CINEMA 3 17 Jan 17:30:05 17:33:12 19° 61° (ENE) 17:36:14 145.822/145.860
BRITE-PL 17 Jan 17:34:14 17:39:10 30° 268° (W) 17:44:06 437.365/2234.400
DANDE 17 Jan 17:35:26 17:40:35 21° 278° (W) 17:46:10 436.750
O/OREOS (USA 219) 17 Jan 17:37:16 17:41:13 30° 254° (WSW) 17:45:09 437.305
KKS-1 17 Jan 17:45:55 17:50:02 39° 293° (WNW) 17:54:09 437.445
BEESAT 2 17 Jan 17:48:10 17:51:36 29° 118° (ESE) 17:55:04 435.950
GOMX 1 17 Jan 17:54:46 17:59:48 38° 264° (W) 18:04:40 467.674
CUTE-I 17 Jan 17:58:54 18:04:11 68° 257° (WSW) 18:09:31 437.470
HORYU 2 17 Jan 17:59:15 18:02:48 24° 267° (W) 18:06:23 437.375
Cosmos 2504 17 Jan 18:04:35 18:10:48 22° 304° (NW) 18:16:48 435.465 / 435.565
CUTE 1.7 + AOD 2 17 Jan 18:08:58 18:12:27 25° 64° (ENE) 18:15:58 437.475
HO-68 17 Jan 18:11:57 18:18:49 50° 62° (ENE) 18:25:42 435.675
M-CUBED/EXP-1 PRIME 17 Jan 18:13:16 18:15:29 16° 307° (NW) 18:17:39 437.505
NOAA 18 17 Jan 18:18:46 18:24:17 77° 255° (WSW) 18:29:49 137.9125
SO-50 17 Jan 18:19:34 18:23:17 25° 244° (WSW) 18:26:58 436.795
CANX-2 17 Jan 18:36:43 18:40:50 51° 70° (ENE) 18:45:00 2200.000
Cosmos 2499 17 Jan 18:40:03 18:45:45 21° 78° (ENE) 18:51:13 435.465 / 435.565
Cubesat XI-IV 17 Jan 18:41:52 18:46:36 32° 265° (W) 18:51:22 437.490
CUBEBUG 2 17 Jan 18:46:04 18:49:32 26° 64° (ENE) 18:52:58 437.445
YUBILEINY 17 Jan 18:46:45 18:48:01 10° 325° (NW) 18:49:18 435.215
BEESAT 3 17 Jan 18:47:44 18:51:30 44° 318° (NW) 18:55:19 437.485
STARS 17 Jan 18:48:47 18:52:06 22° 299° (WNW) 18:55:26 437.465
DOVE 4 17 Jan 18:51:24 18:55:34 26° 267° (W) 18:59:33 437.250
LilacSat-2 17 Jan 18:51:42 18:54:04 16° 270° (W) 18:56:27 437.200
SEEDS 17 Jan 18:54:41 18:58:44 46° 70° (ENE) 19:02:49 437.485
Oscar 11 17 Jan 18:55:10 18:57:19 14° 56° (ENE) 18:59:29 145.826/435.025
CUBESAT XI-V 17 Jan 18:56:52 19:00:18 20° 300° (WNW) 19:03:42 437.345
AO-85 17 Jan 19:00:48 19:02:11 11° 352° (N) 19:03:32 145.980
NOAA 15 17 Jan 19:03:29 19:07:27 21° 270° (W) 19:11:26 137.62
CINEMA 3 17 Jan 19:05:37 19:10:01 58° 259° (W) 19:14:15 145.822/145.860
COMPASS 1 17 Jan 19:06:22 19:10:20 42° 69° (ENE) 19:14:20 437.405
UWE-3 17 Jan 19:20:50 19:24:38 36° 67° (ENE) 19:28:26 435.000/436.395/437.385
AAUSAT CUBESAT 2 17 Jan 19:20:56 19:24:55 46° 70° (ENE) 19:28:57 437.432
STRAND 1 17 Jan 19:23:25 19:28:14 39° 97° (E) 19:33:02 437.568
BEESAT 2 17 Jan 19:25:28 19:29:15 42° 318° (NW) 19:33:07 435.950
FUNcube-1 17 Jan 19:26:07 19:29:28 25° 64° (ENE) 19:32:52 145.935
GONETS M04 17 Jan 19:29:31 19:37:06 35° 83° (E) 19:44:44
DELFI C3 17 Jan 19:34:10 19:35:22 11° 56° (NE) 19:36:34 145.870
CUTE-I 17 Jan 19:43:59 19:45:15 11° 276° (W) 19:46:31 437.470
CUTE 1.7 + AOD 2 17 Jan 19:44:07 19:48:07 40° 263° (W) 19:52:11 437.475
ZACube-1 17 Jan 19:46:41 19:50:34 40° 69° (ENE) 19:54:29 437.345
HO-68 17 Jan 19:59:56 20:06:41 42° 263° (W) 20:13:28 435.675
NOAA 18 17 Jan 20:03:21 20:05:52 13° 274° (W) 20:08:23 137.9125
CANX-2 17 Jan 20:13:53 20:16:59 19° 269° (W) 20:20:07 2200.000
CUBEBUG 2 17 Jan 20:22:08 20:26:01 37° 263° (W) 20:29:54 437.445
HUMSAT D 17 Jan 20:26:22 20:29:27 21° 62° (ENE) 20:32:34 437.325/437.525
BEESAT 3 17 Jan 20:27:57 20:30:05 14° 340° (NNW) 20:32:14 437.485
Oscar 11 17 Jan 20:28:29 20:32:49 89° 254° (WSW) 20:37:11 145.826/435.025
Cosmos 2499 17 Jan 20:29:24 20:37:52 85° 98° (E) 20:45:44 435.465 / 435.565
SEEDS 17 Jan 20:31:27 20:34:40 21° 269° (W) 20:37:55 437.485
AO-85 17 Jan 20:42:17 20:44:22 13° 17° (NNE) 20:46:24 145.980
COMPASS 1 17 Jan 20:42:43 20:46:03 23° 268° (W) 20:49:26 437.405
PRISM 17 Jan 20:46:08 20:48:36 15° 90° (E) 20:51:02 437.425
AIST 2 17 Jan 20:54:58 20:58:59 52° 124° (ESE) 21:03:05 435.215
AAUSAT CUBESAT 2 17 Jan 20:57:27 21:00:38 21° 269° (W) 21:03:50 437.432
UWE-3 17 Jan 20:57:43 21:01:12 25° 266° (W) 21:04:41 435.000/436.395/437.385
FUNcube-1 17 Jan 21:01:42 21:05:33 38° 263° (W) 21:09:29 145.935
STRAND 1 17 Jan 21:02:44 21:07:22 35° 296° (WNW) 21:11:59 437.568
DELFI C3 17 Jan 21:05:28 21:09:29 82° 75° (ENE) 21:13:32 145.870
BEESAT 2 17 Jan 21:05:56 21:08:04 14° 341° (NNW) 21:10:13 435.950
ZACube-1 17 Jan 21:23:45 21:27:02 23° 267° (W) 21:30:21 437.345
GONETS M04 17 Jan 21:24:49 21:33:26 64° 286° (WNW) 21:42:11
JAS-2 17 Jan 21:41:02 21:44:30 14° 83° (E) 21:48:04 435.910
CUBEBUG 1 17 Jan 21:47:47 21:50:26 16° 58° (ENE) 21:53:06 437.445
UNISAT 6 17 Jan 21:48:01 21:51:32 23° 93° (E) 21:55:05 437.425
AISAT 17 Jan 21:56:30 21:58:48 14° 56° (NE) 22:01:06 437.250
HUMSAT D 17 Jan 22:00:48 22:04:46 48° 261° (W) 22:08:49 437.325/437.525
TIGRISAT 17 Jan 22:02:08 22:05:58 29° 95° (E) 22:09:51 435.000
ESTCUBE 1 17 Jan 22:03:27 22:07:29 32° 65° (ENE) 22:11:33 437.505/2401.250
Oscar 11 17 Jan 22:08:19 22:09:38 11° 274° (W) 22:10:56 145.826/435.025
ANTELSAT 17 Jan 22:16:22 22:20:32 41° 98° (E) 22:24:47 437.575/2403.000
BY70-1 17 Jan 22:19:43 22:22:42 81° 77° (ENE) 22:25:58 436.1900
PRISM 17 Jan 22:20:12 22:24:18 63° 289° (WNW) 22:28:22 437.425
AO-85 17 Jan 22:22:03 22:25:51 40° 41° (NE) 22:29:33 145.980
Cosmos 2499 17 Jan 22:25:18 22:31:58 26° 300° (WNW) 22:38:18 435.465 / 435.565
VELOX 1 17 Jan 22:28:29 22:32:04 24° 62° (ENE) 22:35:39 145.980
AIST 2 17 Jan 22:34:02 22:37:42 29° 325° (NW) 22:41:25 435.215
50 SAT 17 Jan 22:42:04 22:44:43 20° 63° (ENE) 22:47:22 437.505
DELFI C3 17 Jan 22:43:35 22:44:52 11° 273° (W) 22:46:09 145.870
BEESAT 2 17 Jan 22:46:54 22:47:34 10° 5° (N) 22:48:12 435.950
YUBILEINY 17 Jan 22:51:17 22:54:19 12° 38° (NE) 22:57:20 435.215
RS-15 17 Jan 22:53:06 23:02:03 26° 99° (E) 23:11:11 29.354- 29.394
DUCHIFAT 1 17 Jan 23:00:12 23:01:40 12° 87° (E) 23:03:08 145.980
NANOSAT C BR1 17 Jan 23:03:31 23:05:43 14° 88° (E) 23:07:54 145.865
DX 1 17 Jan 23:10:18 23:14:09 31° 64° (ENE) 23:18:00 434.975-435.025
UKube-1 17 Jan 23:15:42 23:19:19 27° 63° (ENE) 23:22:57 .
SPROUT 17 Jan 23:19:05 23:23:12 49° 70° (ENE) 23:27:18 437.525
ISS 17 Jan 23:19:50 23:21:38 14° 138° (SE) 23:23:26 145.825
CUBEBUG 1 17 Jan 23:21:46 23:26:11 78° 256° (WSW) 23:30:37 437.445
JAS-2 17 Jan 23:23:49 23:30:39 64° 101° (ESE) 23:38:12 435.910
UNISAT 6 17 Jan 23:24:16 23:28:27 45° 291° (WNW) 23:32:43 437.425
TISAT 1 17 Jan 23:25:02 23:26:37 12° 55° (NE) 23:28:10 437.305
GONETS M04 17 Jan 23:26:49 23:32:24 18° 312° (NW) 23:38:03
AISAT 17 Jan 23:30:09 23:34:37 89° 78° (ENE) 23:39:05 437.250
TIGRISAT 17 Jan 23:38:43 23:42:43 36° 293° (WNW) 23:46:47 435.000
ESTCUBE 1 17 Jan 23:40:07 23:44:16 34° 264° (W) 23:48:26 437.505/2401.250
BEESAT 3 17 Jan 23:45:42 23:48:33 18° 28° (NNE) 23:51:24 437.485
BUGSAT 1 17 Jan 23:46:44 23:48:33 13° 88° (E) 23:50:24 437.445
QB50P1 17 Jan 23:52:36 23:56:38 43° 98° (E) 00:00:40 145.935-145.965
ANTELSAT 17 Jan 23:53:27 23:57:06 26° 296° (WNW) 00:00:48 437.575/2403.000
POLYITAN 1 17 Jan 23:55:45 23:59:51 47° 99° (E) 00:03:56 437.675
QB50P2 17 Jan 23:56:52 00:01:01 51° 100° (E) 00:05:09 145.880/145.840
AO-85 18 Jan 00:02:42 00:06:07 28° 242° (WSW) 00:09:29 145.980
Cosmos 2504 18 Jan 00:03:24 00:06:40 13° 45° (NE) 00:09:52 435.465 / 435.565
VELOX 1 18 Jan 00:04:00 00:08:18 47° 261° (W) 00:12:37 145.980
50 SAT 18 Jan 00:14:21 00:17:42 38° 261° (W) 00:21:06 437.505
AIST 2 18 Jan 00:15:38 00:17:29 12° 348° (NNW) 00:19:21 435.215
BEESAT 18 Jan 00:16:24 00:17:56 11° 51° (NE) 00:19:29 436.000
SWISSCUBE 18 Jan 00:17:06 00:19:10 13° 52° (NE) 00:21:15 437.505
